Gejiu

China     23˚22′04″N   103˚09′06″E
temp.,
°C
wind,
m/s
gust,
m/s
humid.,
%
clouds,
%
prec.,
mm/h
press.,
hPa
HPBL,
m
28 november, sat
sat2823:00+11˚sse239853 0.1 1022101
02:00+11˚s129872 0.1 1021131
05:00+11˚s2297100 0.0 1021205
08:00+11˚s2396100 0.1 1022272
11:00+13˚s3390100 0.2 1022440
14:00+14˚s337699 0.4 1019667
17:00+13˚sse348289 0.1 1018554
20:00+9˚sse229978 0.1 102167
29 november, sun
sun2923:00+10˚sse239699 0.0 1022204
02:00+10˚sse2396100 0.1 1022173
05:00+9˚s2396100 0.0 1022155
08:00+9˚sse2395100 0.1 1023168
11:00+11˚s228299 0.0 1024421
14:00+13˚s337298 0.0 1020675
17:00+12˚s227797 0.0 1019504
20:00+8˚se119579 0.0 102223
30 november, mon
mon3023:00+7˚se12989 0.0 102325
02:00+7˚ese1110025 0.0 102325
05:00+8˚sse119675 0.0 1022133
08:00+8˚se119688 0.0 102499
11:00+10˚s2289100 0.0 1024288
14:00+13˚s337699 0.1 1020581
17:00+12˚s338196 0.0 1018492
20:00+8˚sse229777 0.1 102130
1 december, tue
tue123:00+7˚s229944 0.0 102269
02:00+8˚s349770 0.0 1022225
05:00+8˚s2397100 0.0 1022153
08:00+7˚s2397100 0.0 1023163
11:00+10˚ssw348699 0.0 1022352
14:00+14˚s337498 0.0 1018618
17:00+13˚s338086 0.0 1017510
20:00+8˚sse239967 0.0 101969
2 december, wed
wed223:00+8˚s239880 0.0 1021153
02:00+9˚s349790 0.0 1020200
05:00+8˚s2397100 0.0 1019177
08:00+8˚s3497100 0.0 1019191
11:00+10˚s4492100 0.0 1020297
14:00+12˚s4485100 0.1 1016443
17:00+12˚s348483 0.1 1014475
20:00+9˚s239982 0.1 1017123